GUCYGFLL

Guest
Details From GUCY - CONAKRY
To GFLL - FREETOWN LUNGI
Flight Number -
Tags decoded
Created
Modified
Stats Distance 63 nm / 118 km
Max Altitude 0 ft / 0 m
Waypoints 4
Social Downloads 0
Likes 0
Share VATSIM

Download

Looking for another format? Having issues loading an existing format? Contact us
Advertisement - Login to hide

Notes

Requested: GUCY GIA LGI GFLL

Route

GUCY GIA LGI GFLL

ID Type Via Altitude Latitude Longitude Leg Dist Tot Dist Heading (true) Name
O GUCY APT - 0 ft / 0 m 9.57690˚ -13.61188˚ - 0 nm - CONAKRY
GIA VOR - 0 ft / 0 m 9.56798˚ -13.61969˚ 0 nm 0 nm 221° / 221° CONAKRY VOR-DME
LGI VOR - 0 ft / 0 m 8.61718˚ -13.19137˚ 62 nm 63 nm 156° / 156° FREETOWN LUNGI VOR-DME
O GFLL APT - 0 ft / 0 m 8.61644˚ -13.19549˚ 0 nm 63 nm 260° / 260° FREETOWN LUNGI

Altitude Profile

Advertisement - Login to hide

GUCY

Details ICAO GUCY (CKY)
Name CONAKRY
Region Guinea
Timezone Africa/Conakry (UTC+0.0)
Stats Elevation 72 ft / 22 m (AMSL)
Location 9.576897° -13.611879°
Runways 1
Magnetic Variation 6.956° W

METAR

Not found

TAF

TAF GUCY 241700Z 2418/2524 28008KT 9999 FEW015 SCT110 PROB30 TEMPO 2502/2505 VRB02KT CAVOK

Decode

Departure Runways

ID Width Length Bearing (true) Bearing (mag) Surface Threshold Offset Overrun Length
06 148 ft / 45 m 10,836 ft / 3,303 m 49.26° 56.22° Asphalt 0 ft / 0 m 197 ft / 60 m
24 148 ft / 45 m 10,836 ft / 3,303 m 229.27° 236.23° Asphalt 0 ft / 0 m 197 ft / 60 m

GFLL

Details ICAO GFLL (FNA)
Name FREETOWN LUNGI
Region Sierra Leone
Timezone Africa/Freetown (UTC+0.0)
Stats Elevation 84 ft / 26 m (AMSL)
Location 8.616443° -13.195489°
Runways 1
Magnetic Variation 7.060° W

METAR

GFLL 250300Z 28006KT 9999 BKN012 25/21 Q1010

Decode

TAF

TAF TAF GFLL 241600Z 2418/2524 28007KT 9999 FEW014 SCT110 PROB30 TEMPO 2501/2506 7000 -TSRA BKN010 FEW027CB TEMPO 2508/2513 30006KT 9999 SCT013 SCT110 TEMPO 29010KT CAVOK TEMPO 2517/2522 9999 FEW014

Decode

Destination Runways

ID Width Length Bearing (true) Bearing (mag) Surface Threshold Offset Overrun Length
12 150 ft / 46 m 10,507 ft / 3,203 m 107.14° 114.20° Asphalt 0 ft / 0 m 394 ft / 120 m
30 150 ft / 46 m 10,507 ft / 3,203 m 287.14° 294.20° Asphalt 0 ft / 0 m 197 ft / 60 m

Popular Alternatives